This is the latest recevied weather packets stored in our database for station/object K8JCL-13. If no packets are shown the sender has not sent any weather packets the latest 10 day(s).
| Time | Temp. | Humidity | Pressure | Rain* | Wind** | Luminosity | Snow |
|---|---|---|---|---|---|---|---|
| 1777823059 | 15° C | 55% | 1019 hPa | 0 mm | - | 614 W/m² | - |
| 1777822757 | 14.44° C | 52% | 1019.1 hPa | 0 mm | - | 609 W/m² | - |
| 1777822455 | 15.56° C | 51% | 1019.1 hPa | 0 mm | - | 600 W/m² | - |
| 1777822152 | 15° C | 53% | 1019.2 hPa | 0 mm | - | 594 W/m² | - |
| 1777821849 | 14.44° C | 52% | 1019 hPa | 0 mm | - | 584 W/m² | - |
| 1777821546 | 14.44° C | 54% | 1019 hPa | 0 mm | - | 576 W/m² | - |
| 1777821245 | 15° C | 51% | 1019 hPa | 0 mm | - | 566 W/m² | - |
| 1777820941 | 15° C | 55% | 1019 hPa | 0 mm | - | 556 W/m² | - |
| 1777820637 | 13.89° C | 55% | 1019.2 hPa | 0 mm | - | 547 W/m² | - |
| 1777820334 | 13.33° C | 59% | 1019.2 hPa | 0 mm | - | 535 W/m² | - |
| 1777820032 | 13.33° C | 55% | 1019.2 hPa | 0 mm | - | 526 W/m² | - |
| 1777819728 | 13.33° C | 57% | 1019.2 hPa | 0 mm | - | 514 W/m² | - |
| 1777819427 | 13.89° C | 56% | 1019.1 hPa | 0 mm | - | 503 W/m² | - |
| 1777819123 | 13.89° C | 62% | 1019.1 hPa | 0 mm | - | 490 W/m² | - |
| 1777818820 | 13.89° C | 54% | 1019.1 hPa | 0 mm | - | 478 W/m² | - |
| 1777818517 | 12.78° C | 55% | 1019 hPa | 0 mm | - | 458 W/m² | - |
| 1777818214 | 12.78° C | 60% | 1019.1 hPa | 0 mm | - | 451 W/m² | - |
| 1777817910 | 12.78° C | 58% | 1019.1 hPa | 0 mm | - | 438 W/m² | - |
| 1777817608 | 12.22° C | 61% | 1019.1 hPa | 0 mm | - | 429 W/m² | - |
| 1777817304 | 12.78° C | 58% | 1019 hPa | 0 mm | - | 416 W/m² | - |
| 1777817001 | 12.22° C | 61% | 1018.9 hPa | 0 mm | - | 402 W/m² | - |
| 1777816697 | 12.22° C | 63% | 1019.1 hPa | 0 mm | - | 371 W/m² | - |
| 1777816395 | 11.11° C | 63% | 1019.2 hPa | 0 mm | - | 374 W/m² | - |
| 1777816093 | 11.67° C | 65% | 1019.4 hPa | 0 mm | - | 358 W/m² | - |
| 1777815790 | 11.11° C | 66% | 1019.2 hPa | 0 mm | - | 346 W/m² | - |
* Rain latest hour (hover to see other rain measurements)
** Current wind speed in m/s (hover to see current wind gust speed)